Regional Weather Roundup
Issued by NWS Midland/Odessa, TX

Home | Current Version | Previous Version | Text Only | Print | Product List | Glossary On
Versions: 1 2 3 4 5 6 7 8 9 10 11 12 13 14 15 16 17 18 19 20 21 22 23 24 25 26 27 28 29 30 31 32 33 34 35 36 37 38 39 40 41 42 43 44 45 46 47 48 49 50
000
ASUS44 KMAF 060010
RWRMAF
MIDLAND AREA WEATHER ROUNDUP
NATIONAL WEATHER SERVICE MIDLAND TX
600 PM CST THU MAR 05 2015

...IN SOUTHWEST TEXAS AND SOUTHEAST NEW MEXICO...

CITY           SKY/WX    TMP DP  RH WIND       PRES   REMARKS
ALPINE         CLOUDY    32  29  89 E7        30.46S WCI  26
ANDREWS        FAIR      40  24  51 SW7       30.44S WCI  36
ARTESIA        SUNNY     41  25  52 S16       30.40S WCI  33
BIG SPRING     CLEAR    N/A N/A N/A SW3       30.49S
CARLSBAD       SUNNY     40  25  55 S15       30.41S WCI  32
DRYDEN           N/A     47  21  35 E3        30.45S
FORT STOCKTON  SUNNY     35  26  69 CALM      30.47S
GUAD PASS      NOT AVBL
HOBBS          SUNNY     39  25  56 S9        30.42S WCI  33
MARFA          SUNNY     43  27  52 E8        30.38S WCI  38
MIDLAND AIRPK  CLEAR     42  20  40 SW3       30.46S
MIDLAND INTL   CLEAR     41  20  43 CALM      30.45S
ODESSA         CLEAR     41  20  43 SW5       30.45S WCI  38
PECOS          PTSUNNY   36  27  70 S7        30.48F WCI  31
PRESIDIO       FAIR      50  28  42 NE14G21   30.36F
SEMINOLE       CLEAR     40  24  52 SW9       30.44S WCI  34
SNYDER         CLEAR     40  17  40 CALM      30.48S
WINK           SUNNY     42  22  44 VRB6      30.44S WCI  38
$$
...OTHER STATIONS IN TEXAS...

CITY           SKY/WX    TMP DP  RH WIND       PRES   REMARKS
ABILENE        CLEAR     40  18  41 E5        30.51S WCI  37
AMARILLO       CLEAR     44  21  40 SW10      30.34S WCI  39
AUSTIN         PTCLDY    42  18  37 N21G28    30.53R WCI  33
BROWNSVILLE    CLOUDY    50  37  61 N13G20    30.44R
CORPUS CHRISTI MOCLDY    51  32  48 N18       30.46R
DALLAS FTW     CLEAR     38  19  46 NE7       30.55S WCI  33
DEL RIO        CLEAR     50  22  33 N7        30.49F
EL PASO        SUNNY     49  20  31 VRB5      30.35S
HOUSTON INT    PTCLDY    47  26  44 N10       30.46R
LUBBOCK        PTCLDY    40  25  55 S12       30.40F WCI  33
SAN ANGELO     CLEAR     42  17  36 NE5       30.50R WCI  39
SAN ANTONIO    PTCLDY    46  20  35 N13       30.51R
WACO           CLEAR     38  19  46 N13       30.56R WCI  30
WICHITA FALLS  NOT AVBL
$$
...OTHER LOCATIONS IN NEW MEXICO...

CITY           SKY/WX    TMP DP  RH WIND       PRES   REMARKS
ALAMAGORDO     SUNNY     48  19  32 S6        30.35S
ALBUQUERQUE    SUNNY     52   9  17 CALM      30.30S
CANNON AFB     CLEAR     43  18  37 SW14      30.32S WCI  36
CLOVIS         CLEAR     43  19  39 SW16      30.33R WCI  35
HOLLOMAN AFB   SUNNY     49  15  25 SE7       30.33S
ROSWELL        SUNNY     43  22  43 S14       30.37S WCI  36
RUIDOSO        SUNNY     43   9  24 N7G16     30.33R WCI  39
SANTA FE       SUNNY     47   9  21 E6        30.28S
TRUTH OR CONSE SUNNY     53   4  13 E5        30.31S
TUCUMCARI      CLEAR     45  21  38 S14       30.28F WCI  38
$$


USA.gov is the U.S. government's official web portal to all federal, state and local government web resources and services.